Location: Drummondville
(45.8830°N, 72.4830°W)
Time: 14:22:45
(UTC-04:00)

ISS - Visible Passes

Search period start: 18 July 2018 00:00
Search period end: 28 July 2018 00:00
Orbit: 402 x 408 km, 51.6° (Epoch: 18 July)

Date Brightness Start Highest point End Pass type
(mag) Time Alt. Az. Time Alt. Az. Time Alt. Az.
18 Jul -2.1 01:00:29 22° WNW 01:01:58 34° NNW 01:05:02 10° NE visible
18 Jul -1.8 02:36:01 10° WNW 02:39:01 31° N 02:42:01 10° ENE visible
18 Jul -3.7 04:12:31 10° WNW 04:15:49 82° NNE 04:19:07 10° ESE visible
18 Jul -2.1 22:30:12 10° SW 22:35:07 20° E 22:36:23 10° ENE visible
19 Jul -2.7 00:07:07 14° W 00:09:46 44° NNW 00:12:57 10° NE visible
19 Jul -1.7 01:43:50 10° WNW 01:46:46 28° N 01:49:42 10° ENE visible
19 Jul -3.0 03:20:27 10° WNW 03:23:43 54° NNE 03:26:57 10° E visible
19 Jul -2.7 21:38:41 10° SSW 21:41:20 23° SE 21:44:00 10° E visible
19 Jul -3.4 23:14:21 10° WSW 23:17:36 63° NNW 23:20:53 10° ENE visible
20 Jul -1.8 00:51:34 10° WNW 00:54:30 29° N 00:57:26 10° ENE visible
20 Jul -2.4 02:28:23 10° NW 02:31:31 39° NNE 02:34:39 10° E visible
20 Jul -3.7 04:04:53 10° WNW 04:08:05 49° SW 04:11:17 10° SE visible
20 Jul -4.0 22:22:12 10° WSW 22:25:29 83° SSE 22:28:46 10° ENE visible
20 Jul -2.0 23:59:13 10° WNW 00:02:13 32° N 00:05:15 10° NE visible
21 Jul -2.0 01:36:15 10° NW 01:39:16 32° N 01:42:18 10° ENE visible
21 Jul -4.0 03:12:43 10° WNW 03:16:02 84° SSW 03:19:19 10° ESE visible
21 Jul -3.6 21:30:15 10° SW 21:33:24 48° SE 21:36:36 10° ENE visible
21 Jul -2.4 23:06:52 10° W 23:09:58 39° NNW 23:13:06 10° NE visible
22 Jul -1.8 00:44:03 10° WNW 00:47:00 29° N 00:49:56 10° ENE visible
22 Jul -3.4 02:20:37 10° WNW 02:23:53 62° NNE 02:27:09 10° ESE visible
22 Jul -2.7 03:57:28 10° W 04:00:10 23° SW 04:02:51 10° SSE visible
22 Jul -3.0 22:14:32 10° W 22:17:45 54° NNW 22:21:00 10° ENE visible
22 Jul -1.7 23:51:46 10° WNW 23:54:41 28° N 23:57:37 10° ENE visible
23 Jul -2.3 01:28:30 10° NW 01:30:54 36° NNW 01:30:54 36° NNW visible
23 Jul -3.7 21:22:18 10° WSW 21:25:35 82° NNW 21:28:51 10° ENE visible
23 Jul -1.9 22:59:24 10° WNW 23:02:22 30° N 23:05:21 10° ENE visible
24 Jul -2.2 00:36:22 10° NW 00:39:25 34° NNE 00:39:30 34° NNE visible
24 Jul -2.2 22:07:00 10° W 22:10:04 36° NNW 22:13:09 10° NE visible
24 Jul -1.9 23:44:09 10° WNW 23:47:06 30° N 23:48:35 21° NE visible
25 Jul -1.1 01:20:39 10° WNW 01:21:12 14° WNW 01:21:12 14° WNW visible
25 Jul -2.7 21:14:37 10° W 21:17:48 47° NNW 21:21:00 10° ENE visible
25 Jul -1.8 22:51:51 10° WNW 22:54:46 28° N 22:57:41 10° ENE visible
26 Jul -2.0 00:28:30 10° WNW 00:30:27 30° NW 00:30:27 30° NW visible
26 Jul -1.8 21:59:28 10° WNW 22:02:25 29° N 22:05:21 10° ENE visible
26 Jul -2.5 23:36:21 10° NW 23:39:26 37° NNE 23:39:46 36° NNE visible
27 Jul -2.1 21:07:02 10° W 21:10:04 33° NNW 21:13:06 10° NE visible
27 Jul -2.1 22:44:07 10° WNW 22:47:06 31° N 22:49:08 16° ENE visible
